Date,TemperatureHighF,TemperatureAvgF,TemperatureLowF,DewpointHighF,DewpointAvgF,DewpointLowF,HumidityHigh,HumidityAvg,HumidityLow,PressureMaxIn,PressureMinIn,WindSpeedMaxMPH,WindSpeedAvgMPH,GustSpeedMaxMPH,PrecipitationSumIn
2013-1-1,19,6,-9,18,2,-12,92,83,56,29.95,29.71,12,4,12,0.00
2013-1-2,21,16,13,19,15,12,100,95,91,29.75,29.62,9,4,9,0.00
2013-1-3,21,13,9,19,9,4,92,83,68,29.93,29.75,13,5,13,0.00
2013-1-4,33,22,15,20,16,13,96,78,54,29.80,29.69,9,4,9,0.01
2013-1-5,32,19,11,19,14,9,97,82,55,29.77,29.53,10,4,10,0.00
2013-1-6,27,16,8,17,12,5,97,85,55,29.89,29.69,15,6,15,0.00
2013-1-7,43,30,21,28,24,17,92,76,53,29.70,29.55,25,8,25,0.00
2013-1-8,34,30,18,30,27,18,100,90,76,29.66,29.42,16,6,17,0.00
2013-1-9,38,33,26,29,24,22,93,69,56,30.01,29.59,19,6,19,0.00
2013-1-10,42,36,27,34,29,22,100,76,48,29.98,29.42,17,9,17,0.21
2013-1-11,40,36,34,40,36,34,99,99,99,29.42,29.08,14,6,14,0.01
2013-1-12,39,15,9,39,8,2,99,74,65,29.72,29.08,8,0,8,0.01
2013-1-13,10,4,2,3,0,-2,89,82,71,29.92,29.73,0,0,0,0.00
2013-1-14,15,6,3,6,3,1,93,85,63,30.07,29.91,0,0,0,0.00
2013-1-15,34,26,11,20,16,9,93,68,48,29.94,29.52,19,6,19,0.00
2013-1-16,38,26,13,35,21,2,100,79,51,29.90,29.35,22,6,22,0.00
2013-1-17,20,13,3,13,4,-4,83,67,50,30.06,29.90,11,3,11,0.00
2013-1-18,47,32,17,33,26,12,100,81,57,29.96,29.39,17,6,17,0.00
2013-1-19,42,24,2,33,19,-5,100,81,57,29.91,29.35,36,9,36,0.07
2013-1-20,11,3,-3,3,-5,-11,87,68,50,30.07,29.91,19,7,19,0.00
2013-1-21,-3,-7,-12,-10,-14,-19,80,67,57,30.01,29.93,19,7,19,0.00
2013-1-22,6,-3,-12,-1,-10,-17,80,69,53,30.06,29.90,10,3,10,0.00
2013-1-23,18,8,-4,11,-1,-16,91,68,49,30.27,29.81,22,6,22,0.00
2013-1-24,13,3,-6,4,-8,-17,66,59,48,30.33,29.84,23,7,23,0.00
2013-1-25,20,13,3,14,5,-2,85,71,55,29.98,29.62,28,7,28,0.00
2013-1-26,25,13,-1,14,5,-4,92,70,50,30.01,29.78,18,6,18,0.00
2013-1-27,33,30,24,32,25,14,100,82,60,29.79,29.48,21,4,21,0.08
2013-1-28,36,32,29,36,32,29,99,99,99,29.58,29.31,12,2,12,0.12
2013-1-29,42,32,28,34,31,24,100,93,83,29.62,29.20,14,3,14,0.07
2013-1-30,28,18,8,24,12,2,87,79,71,29.44,29.31,23,9,23,0.00
2013-1-31,8,1,-9,3,-5,-16,84,74,65,29.94,29.44,21,9,21,0.00
2013-2-1,7,-2,-13,4,-9,-18,90,71,42,29.98,29.71,14,3,14,0.00
2013-2-2,18,8,2,8,2,-2,92,79,50,29.85,29.64,8,3,8,0.00
2013-2-3,16,11,4,10,6,0,93,81,60,29.76,29.63,15,4,15,0.00
2013-2-4,27,12,3,15,5,0,100,74,41,29.74,29.43,15,3,15,0.01
2013-2-5,33,22,6,28,19,5,100,87,64,29.76,29.34,17,5,17,0.00
2013-2-6,28,16,3,22,14,-4,100,90,76,29.79,29.60,14,4,14,0.00
2013-2-7,27,25,20,26,24,19,100,93,83,29.92,29.65,11,3,11,0.00
2013-2-8,31,24,20,23,19,14,91,80,60,30.04,29.89,17,5,17,0.00
2013-2-9,33,29,25,31,27,22,100,93,86,29.89,29.60,21,10,21,0.00
2013-2-10,34,31,28,34,31,27,100,98,94,29.61,28.94,20,4,20,0.00
2013-2-11,30,25,17,30,22,14,100,88,78,29.72,29.02,22,4,22,0.00
2013-2-12,41,26,14,26,20,11,96,79,52,29.73,29.48,14,4,14,0.20
2013-2-13,45,30,17,34,26,16,100,86,53,29.48,29.24,11,3,11,0.12
2013-2-14,35,27,14,32,20,5,100,78,44,29.85,29.25,17,4,17,0.04
2013-2-15,21,11,4,7,3,0,87,71,47,29.96,29.85,16,5,16,0.00
2013-2-16,29,10,-2,12,3,-4,95,77,43,29.93,29.80,9,2,9,0.00
2013-2-17,33,27,8,25,21,3,87,79,61,29.78,29.30,25,13,25,0.00
2013-2-18,34,24,6,33,20,3,97,84,74,29.50,29.20,17,8,22,0.00
2013-2-19,8,4,-2,4,-4,-9,89,70,56,30.03,29.49,20,9,20,0.00
2013-2-20,23,7,-9,5,-2,-13,85,67,40,30.13,30.02,8,2,8,0.00
2013-2-21,28,16,4,13,8,1,89,69,46,30.11,29.74,14,3,14,0.00
2013-2-22,32,23,19,26,21,13,100,91,72,29.74,29.52,12,2,12,0.05
2013-2-23,35,22,12,24,19,12,100,89,58,29.65,29.52,8,2,8,0.06
2013-2-24,43,22,7,26,17,6,100,82,47,29.77,29.63,12,3,12,0.01
2013-2-25,47,30,19,31,24,19,100,83,47,29.78,29.69,8,2,8,0.00
2013-2-26,42,28,16,30,24,16,100,86,61,29.73,29.54,12,3,12,0.00
2013-2-27,41,33,28,29,26,24,90,78,55,29.70,29.54,14,5,14,0.00
2013-2-28,32,28,24,24,22,18,86,76,70,29.88,29.69,14,4,14,0.00
2013-3-1,34,25,15,20,17,11,83,70,53,30.02,29.88,11,3,11,0.00
2013-3-2,38,22,8,21,10,5,100,65,27,30.02,29.84,11,3,11,0.00
2013-3-3,36,26,15,16,12,8,74,55,38,29.84,29.64,17,6,17,0.00
2013-3-4,28,25,22,24,20,13,100,82,54,29.71,29.59,20,7,20,0.00
2013-3-5,33,26,22,29,25,20,100,93,80,29.97,29.64,11,2,11,0.01
2013-3-6,36,24,14,22,18,13,97,81,56,30.08,29.96,11,3,11,0.01
2013-3-7,34,22,8,21,16,8,100,79,56,30.05,29.93,17,5,17,0.00
2013-3-8,41,30,16,31,25,16,100,83,61,29.99,29.75,17,7,17,0.02
2013-3-9,37,35,33,36,34,30,100,98,82,29.76,29.39,21,10,21,0.48
2013-3-10,33,33,33,30,30,30,88,88,87,29.56,29.55,8,5,8,0.05
2013-5-18,84,74,57,70,65,57,99,76,55,29.65,29.45,27,9,27,1.00
2013-5-19,85,70,63,71,66,62,100,89,57,29.47,29.22,35,7,35,1.04
2013-5-20,77,66,58,68,62,58,100,87,57,29.29,29.18,22,7,22,0.64
2013-5-21,67,59,51,63,58,51,100,96,80,29.39,29.19,10,3,10,0.08
2013-5-22,53,50,46,53,50,46,99,99,91,29.66,29.37,14,3,14,0.24
2013-5-23,77,57,44,49,36,23,100,53,15,30.01,29.66,12,3,12,0.01
2013-5-24,72,56,39,54,40,26,100,57,30,30.06,29.84,21,6,21,0.17
2013-5-25,59,56,53,53,50,42,100,81,62,29.93,29.89,21,8,21,0.04
2013-5-26,59,55,52,51,45,38,78,69,51,29.90,29.71,27,9,27,0.00
2013-5-27,64,57,53,59,54,49,100,91,68,29.72,29.51,23,6,23,0.08
2013-5-28,62,57,53,61,56,53,100,98,92,29.52,29.40,14,2,14,0.11
2013-5-29,79,66,53,74,64,53,100,95,75,29.51,29.31,21,6,21,0.45
2013-5-30,80,70,64,69,66,63,100,86,58,29.35,29.19,26,11,26,0.13
2013-5-31,83,70,62,65,59,49,100,71,32,29.24,29.18,29,9,29,0.17
2013-6-1,78,61,52,67,55,45,100,81,51,29.62,29.23,15,3,15,0.07
2013-6-2,79,60,50,46,42,35,80,55,21,29.76,29.62,14,3,14,0.00
2013-6-3,77,62,47,49,44,37,100,57,26,29.75,29.59,14,3,14,0.00
2013-6-4,65,60,55,57,52,45,100,76,52,29.75,29.67,21,8,21,0.01
2013-6-5,56,55,54,55,53,52,100,92,89,29.73,29.71,11,5,11,0.01
2013-6-6,57,54,51,56,54,51,100,98,94,29.71,29.64,4,1,4,0.01
2013-6-7,76,64,53,58,54,51,99,73,45,29.73,29.59,5,1,5,0.00
2013-6-8,75,64,53,60,56,52,100,75,48,29.61,29.56,15,4,15,0.00
2013-6-9,75,62,57,67,60,56,100,96,75,29.58,29.44,21,6,21,0.51
2013-6-10,88,69,58,67,62,58,100,83,43,29.54,29.48,8,1,8,0.00
2013-6-11,87,69,58,74,66,58,100,90,57,29.57,29.47,11,2,11,0.02
2013-6-12,83,68,62,74,65,56,99,91,60,29.59,29.44,13,2,13,0.73
2013-6-13,92,73,56,59,55,50,90,58,27,29.77,29.59,13,2,13,0.00
2013-6-14,83,71,60,63,58,52,83,65,47,29.75,29.54,24,9,24,0.00
2013-6-15,70,66,66,67,65,63,100,97,79,29.58,29.55,12,6,12,0.06
2013-6-16,92,73,58,66,56,40,99,66,17,29.61,29.51,8,3,8,0.07
2013-6-17,88,77,59,63,57,49,100,53,29,29.68,29.54,13,4,13,0.00
2013-6-18,82,68,58,63,57,53,83,68,43,29.76,29.67,10,3,10,0.00
2013-6-19,87,74,62,65,59,53,85,61,33,29.74,29.61,15,6,15,0.00
2013-6-20,92,81,72,70,64,59,74,57,37,29.67,29.54,19,8,19,0.00
2013-6-21,86,77,65,75,69,64,100,77,55,29.74,29.44,20,2,20,0.11
2013-6-23,88,79,70,74,70,66,100,75,51,29.57,29.36,17,5,17,1.17
2013-6-24,86,73,65,76,70,64,100,89,62,29.58,29.48,17,4,17,0.25
2013-6-25,88,76,66,77,71,66,100,85,61,29.51,29.39,20,6,20,0.00
2013-6-26,92,81,72,79,72,66,100,77,47,29.50,29.33,14,4,14,0.00
2013-6-27,90,80,69,69,62,50,95,60,27,29.50,29.46,19,2,19,0.00
2013-6-28,82,72,65,68,62,58,99,71,50,29.49,29.42,21,4,21,0.12
2013-6-29,85,70,62,69,60,51,99,75,37,29.65,29.42,8,2,8,0.20
2013-6-30,92,72,55,61,54,42,100,60,25,29.78,29.65,11,2,11,0.00
2013-7-1,93,76,59,66,58,49,100,61,25,29.85,29.78,12,1,12,0.00
2013-7-2,94,76,58,58,55,49,94,54,24,29.83,29.72,10,1,10,0.00
2013-7-3,96,75,58,64,56,45,100,59,21,29.75,29.62,53,2,53,0.00
2013-7-4,90,78,66,66,59,51,79,54,29,29.65,29.53,17,7,17,0.00
2013-7-5,89,80,71,68,62,59,68,56,39,29.58,29.48,22,9,22,0.00
2013-7-6,92,82,74,69,65,62,70,57,43,29.55,29.48,17,8,17,0.00
2013-7-7,94,83,75,75,70,64,86,66,47,29.56,29.48,17,4,17,0.00
2013-7-8,99,81,68,74,70,68,100,74,40,29.67,29.55,7,2,7,0.00
2013-7-9,88,79,70,78,72,65,99,80,59,29.63,29.43,36,5,36,0.32
2013-7-10,88,72,63,66,61,53,87,71,34,29.73,29.59,16,3,16,0.00
2013-7-11,87,75,60,67,60,53,100,65,33,29.79,29.65,13,4,13,0.00
2013-7-12,90,79,69,67,62,58,74,56,40,29.69,29.58,23,10,23,0.00
2013-7-13,80,73,64,73,66,59,100,80,56,29.74,29.59,34,8,34,3.02
2013-7-14,88,77,69,71,68,63,93,74,49,29.86,29.73,14,5,14,0.00
2013-7-15,91,81,69,74,69,66,97,71,47,29.91,29.83,12,4,12,0.00
2013-7-16,97,85,75,77,74,70,100,73,45,29.89,29.84,15,4,15,0.00
2013-7-17,97,85,74,76,74,70,100,73,45,29.93,29.78,14,3,14,0.00
2013-7-18,82,80,78,74,74,74,87,82,78,29.79,29.76,6,4,6,0.00
2013-7-19,89,81,73,75,67,61,94,65,39,29.57,29.41,12,5,12,0.00
2013-7-20,86,74,64,69,64,59,100,73,50,29.63,29.56,7,1,7,0.00
2013-7-21,84,76,59,72,68,55,99,77,60,29.65,29.47,14,6,14,0.26
2013-7-22,91,77,67,76,68,58,100,76,44,29.52,29.35,14,6,14,0.00
2013-7-23,119,72,58,61,57,51,100,64,32,29.69,29.52,8,2,8,0.00
2013-7-24,86,69,61,63,58,52,91,70,41,29.75,29.65,11,3,11,0.00
2013-7-25,85,74,66,70,66,58,93,75,56,29.66,29.58,11,4,11,0.01
2013-7-26,73,65,58,68,59,49,100,81,54,29.75,29.57,18,4,18,0.11
2013-7-27,66,58,53,56,51,48,92,78,56,29.75,29.62,12,4,21,0.01
2013-7-28,69,57,52,56,51,47,92,81,61,29.75,29.64,8,2,8,0.00
2013-7-29,81,68,52,62,57,52,100,72,43,29.81,29.74,13,4,13,0.00
2013-7-30,76,67,63,70,63,58,100,87,68,29.78,29.73,8,2,8,0.01
2013-7-31,85,73,62,72,63,54,99,72,47,29.75,29.66,13,4,13,0.02
2013-8-1,91,72,55,65,58,54,100,67,34,29.72,29.53,10,2,10,0.00
2013-8-2,83,71,58,64,59,52,100,69,37,29.65,28.95,11,2,11,0.00
2013-8-3,90,74,53,61,54,50,99,55,28,29.87,29.73,10,2,10,0.00
2013-8-4,81,65,53,62,57,52,100,77,43,29.91,29.68,12,2,12,0.07
2013-8-5,86,70,61,72,66,58,100,86,60,29.72,29.47,19,4,19,0.87
2013-8-6,88,72,59,70,65,59,100,82,50,29.52,29.34,20,4,20,0.31
2013-8-7,90,73,62,66,59,48,100,67,25,29.71,29.46,13,3,13,0.00
2013-8-8,83,68,57,64,59,54,97,76,44,29.74,29.66,9,3,9,0.00
2013-8-9,87,72,59,66,58,52,100,68,32,29.80,29.67,14,4,14,0.00
2013-8-10,90,74,62,60,56,48,86,58,26,29.87,29.76,10,2,10,0.00
2013-8-11,87,73,64,70,64,57,97,77,51,29.76,29.66,9,2,9,0.01
2013-8-12,93,76,63,68,61,54,100,66,29,29.74,29.67,12,4,12,0.00
2013-8-13,89,71,58,58,53,44,95,59,23,29.87,29.74,9,2,9,0.00
2013-8-14,86,70,54,60,53,50,95,59,32,29.88,29.77,9,3,9,0.00
2013-8-15,87,70,58,65,57,52,88,65,39,29.82,29.74,10,4,10,0.00
2013-8-16,88,72,59,66,58,52,97,66,35,29.87,29.80,13,4,13,0.00
2013-8-17,84,72,60,62,58,53,90,64,37,29.88,29.77,18,5,18,0.00
2013-8-18,85,74,63,63,60,57,84,63,42,29.81,29.68,20,6,20,0.00
2013-8-19,88,76,67,72,66,60,85,73,52,29.71,29.57,19,7,19,0.00
2013-8-20,90,80,72,76,72,68,88,76,60,29.60,29.53,19,7,19,0.00
2013-8-21,94,80,74,80,75,72,100,86,60,29.67,29.51,14,4,14,0.02
2013-8-22,96,80,68,76,59,51,100,53,24,29.79,29.66,11,3,11,0.00
2013-8-23,88,75,63,70,63,53,86,66,47,29.82,29.70,16,4,16,0.00
2013-8-24,89,80,71,75,72,67,90,77,60,29.75,29.61,34,11,34,0.00
2013-8-25,96,87,79,78,76,72,82,69,55,29.67,29.61,24,10,24,0.00
2013-8-26,96,86,78,79,77,75,93,75,54,29.67,29.52,19,7,19,0.00
2013-8-27,102,82,77,78,76,74,92,82,45,29.54,29.48,11,4,11,0.00
2013-8-28,97,85,72,79,75,69,100,73,46,29.68,29.59,15,3,15,0.00
2013-8-29,96,82,76,79,76,70,100,85,44,29.67,29.57,18,6,18,0.00
2013-8-30,93,82,74,75,68,64,95,65,45,29.60,29.50,14,4,14,0.00
2013-8-31,98,78,65,74,68,65,100,75,38,29.58,29.39,15,3,15,0.07
2013-9-1,79,71,64,70,63,56,96,77,58,29.66,29.39,15,5,15,0.01
2013-9-2,73,62,54,57,55,52,97,78,55,29.78,29.65,10,3,10,0.00
2013-9-3,84,65,51,61,57,51,100,77,39,29.78,29.67,10,3,10,0.00
2013-9-4,100,77,61,72,65,59,97,69,35,29.82,29.68,8,3,8,0.00
2013-9-5,90,74,63,70,63,56,92,69,44,29.89,29.76,14,4,14,0.00
2013-9-6,92,80,70,73,69,62,100,73,41,29.77,29.54,20,7,20,0.00
2013-9-7,104,84,71,77,70,66,95,65,33,29.68,29.53,12,4,12,0.00
2013-9-8,79,72,68,68,65,62,90,79,63,29.72,29.56,17,4,17,0.00
2013-9-9,94,80,70,77,72,68,100,79,50,29.56,29.31,24,6,24,0.02
2013-9-10,86,76,69,74,68,64,100,77,55,29.66,29.43,11,3,11,0.00
2013-9-11,96,77,65,66,61,50,100,64,28,29.73,29.66,14,4,14,0.00
2013-9-12,84,69,57,59,51,45,88,57,29,29.90,29.73,14,4,14,0.00
2013-9-13,82,63,48,51,47,42,94,58,26,29.95,29.77,11,2,11,0.00
2013-9-14,75,62,54,59,50,46,100,68,39,29.77,29.56,18,6,18,0.47
2013-9-15,70,60,52,62,56,48,100,88,66,30.00,29.56,14,4,14,0.26
2013-9-16,73,56,43,52,46,41,100,71,38,30.08,29.93,13,3,13,0.00
2013-9-17,68,58,49,60,53,45,100,85,65,29.93,29.62,27,8,27,0.01
2013-9-18,76,68,60,74,68,60,100,97,87,29.63,29.38,21,6,21,0.00
2013-9-19,81,73,66,74,70,62,100,90,71,29.48,29.33,18,5,18,0.17
2013-9-20,66,59,55,61,56,54,97,89,79,29.53,29.47,11,5,11,0.00
2013-9-21,76,61,48,55,50,47,100,71,41,29.67,29.58,9,3,9,0.00
2013-9-22,76,61,48,58,53,46,95,76,51,29.66,29.53,23,8,23,0.00
2013-9-23,76,62,53,56,53,50,92,74,45,29.64,29.53,23,8,30,0.00
2013-9-24,83,65,52,59,54,51,95,71,41,29.65,29.58,14,4,14,0.00
2013-9-25,78,64,54,58,54,52,96,72,44,29.66,29.55,18,5,18,0.00
2013-9-26,82,69,56,64,58,53,92,72,49,29.61,29.50,30,11,30,0.00
2013-9-27,85,74,66,66,63,62,88,71,49,29.59,29.46,32,11,32,0.00
2013-9-28,72,62,50,67,57,47,100,84,72,29.63,29.31,28,8,28,0.15
2013-9-29,78,62,49,52,47,43,89,61,30,29.65,29.47,21,9,21,0.00
2013-9-30,81,69,60,55,51,48,70,54,38,29.48,29.28,25,11,25,0.00
2013-10-1,89,71,56,56,45,27,72,45,12,29.67,29.28,21,7,21,0.00
2013-10-2,77,63,48,58,43,32,100,54,21,29.73,29.50,21,6,21,0.46
2013-10-3,62,59,57,62,59,57,100,99,95,29.61,29.47,19,3,19,0.09
2013-10-4,58,57,56,58,57,56,99,99,99,29.66,29.51,15,5,15,0.22
2013-10-5,68,56,44,60,53,44,100,90,56,29.55,29.42,18,3,18,0.04
2013-10-6,58,48,42,55,48,42,100,98,87,29.53,29.37,12,3,12,0.07
2013-10-7,81,56,42,58,46,42,100,75,31,29.65,29.51,10,3,10,0.00
2013-10-8,77,63,51,50,46,43,82,57,33,29.65,29.50,30,10,30,0.00
2013-10-9,76,68,60,62,52,49,84,58,42,29.72,29.61,18,8,18,0.00
2013-10-10,61,56,53,49,48,48,82,74,65,29.72,29.70,9,3,11,0.00
2013-10-11,75,68,56,64,58,53,100,70,51,29.56,29.30,38,14,38,0.09
2013-10-12,60,52,46,59,45,40,97,78,57,29.86,29.39,25,6,25,0.00
2013-10-13,75,52,37,48,39,35,97,65,26,30.11,29.86,10,3,10,0.00
2013-10-14,55,48,44,50,40,37,100,74,56,30.07,29.63,18,4,18,0.37
2013-10-15,54,50,47,54,50,47,99,99,99,29.66,29.35,23,6,23,0.53
2013-10-16,61,48,42,49,44,36,100,86,55,29.62,29.50,17,4,17,0.02
2013-10-17,72,50,40,47,40,36,97,76,32,29.57,29.42,14,5,14,0.00
2013-10-18,69,50,39,48,37,30,99,66,27,29.65,29.52,12,5,14,0.15
2013-10-19,54,41,33,45,37,31,100,87,64,29.52,29.36,16,4,16,0.01
2013-10-20,50,39,32,44,36,31,100,91,67,29.55,29.29,14,6,14,0.05
2013-10-21,41,36,31,36,26,23,89,68,52,29.64,29.55,19,6,19,0.00
2013-10-22,43,35,25,36,30,24,100,84,66,29.71,29.62,10,2,10,0.00
2013-10-23,41,36,32,35,28,23,93,76,56,29.78,29.67,13,4,15,0.00
2013-10-24,57,40,33,36,29,23,84,66,40,29.99,29.77,14,4,14,0.00
2013-10-25,58,44,27,43,35,27,100,73,49,29.99,29.46,21,8,21,0.00
2013-10-26,65,47,36,43,33,29,78,60,32,29.78,29.47,20,7,20,0.00
2013-10-27,71,47,31,38,32,28,91,62,26,29.80,29.49,17,6,17,0.00
2013-10-28,62,42,32,32,26,21,83,57,25,30.09,29.80,14,4,14,0.00
2013-10-29,44,39,32,39,30,22,92,72,65,30.07,29.75,13,3,13,0.02
2013-10-30,50,46,41,50,46,39,100,99,93,29.76,29.35,15,2,15,0.08
2013-10-31,50,44,40,50,43,40,100,99,95,29.34,29.07,13,4,13,0.02
2013-11-1,65,47,39,46,40,33,99,79,42,29.54,29.10,14,5,14,0.00
2013-11-2,68,45,33,40,34,31,94,69,31,29.77,29.54,15,4,15,0.00
2013-11-3,55,45,36,37,34,30,88,67,44,29.78,29.55,40,16,40,0.00
2013-11-4,49,45,36,48,40,36,100,83,61,29.83,29.50,36,10,36,0.13
2013-11-5,37,33,30,36,33,30,99,99,99,29.90,29.83,7,2,7,0.00
2013-11-6,60,39,30,38,29,26,99,71,37,29.84,29.69,14,4,14,0.15
2013-11-7,44,32,27,37,30,26,100,92,70,29.90,29.84,14,4,14,0.00
2013-11-8,46,37,25,43,31,25,100,81,53,29.87,29.28,31,11,31,0.00
2013-11-9,46,42,35,43,35,27,91,78,61,29.88,29.31,33,12,33,0.00
2013-11-10,58,40,32,35,31,27,83,71,39,30.00,29.76,17,4,17,0.00
2013-11-11,42,28,16,33,16,8,88,64,35,30.39,29.78,20,7,20,0.00
2013-11-12,44,23,12,18,11,7,85,63,25,30.44,30.11,11,5,13,0.00
2013-11-13,52,38,23,37,26,14,74,61,43,30.11,29.55,23,10,23,0.00
2013-11-14,39,37,36,31,31,30,82,79,74,29.56,29.52,12,8,12,0.00
2013-11-15,61,50,33,44,40,32,100,68,48,29.52,29.32,22,9,23,0.00
2013-11-16,50,46,41,50,44,37,100,95,72,29.32,28.92,21,8,21,0.11
2013-11-17,45,40,32,44,38,27,100,91,79,29.51,29.00,30,9,30,0.00
2013-11-18,48,33,25,28,23,20,83,69,39,29.93,29.51,27,8,27,0.00
2013-11-19,26,25,24,22,21,20,86,85,83,29.93,29.91,10,4,10,0.00
2013-11-20,46,42,37,37,32,26,97,69,50,29.71,29.56,27,12,27,0.00
2013-11-21,39,32,25,38,30,20,100,94,79,30.17,29.71,12,6,12,0.00
2013-11-22,46,29,14,21,12,4,90,51,26,30.28,30.09,21,7,21,0.00
2013-11-23,38,17,7,14,3,-1,82,57,24,30.49,30.28,15,5,15,0.00
2013-11-24,31,20,7,17,9,1,79,62,43,30.36,29.67,30,11,30,0.00
2013-11-25,50,35,27,34,24,17,84,66,48,29.75,29.58,22,9,22,0.00
2013-11-26,37,24,14,22,8,2,70,53,29,30.04,29.75,27,9,27,0.00
2013-11-27,34,19,8,16,8,4,87,62,36,30.05,29.74,17,5,17,0.00
2013-11-28,50,27,15,20,12,9,79,57,27,30.17,29.90,15,5,15,0.00
2013-11-29,33,24,13,23,16,8,84,72,53,30.17,29.80,23,8,23,0.00
2013-11-30,62,36,26,33,26,22,91,69,29,29.83,29.69,14,4,14,0.00
2013-12-1,47,30,20,32,24,19,96,80,50,29.86,29.59,9,2,9,0.00
2013-12-2,38,33,29,35,32,26,100,93,83,29.59,29.25,21,8,21,0.06
2013-12-3,36,35,32,36,34,32,99,99,99,29.46,29.25,19,4,19,0.09
2013-12-4,33,29,13,33,28,10,100,98,88,29.45,29.15,0,0,0,0.00
2013-12-5,26,11,4,10,3,-2,88,70,38,29.89,29.40,0,0,0,0.00
2013-12-6,26,3,0,-5,-29,-37,79,10,10,30.30,30.12,0,0,0,0.00
2013-12-7,26,4,0,-9,-25,-37,44,21,18,30.38,30.22,0,0,0,0.00
2013-12-8,14,8,1,9,2,-13,87,77,44,30.22,29.69,0,0,0,0.00
2013-12-9,17,7,6,9,-4,-12,89,63,33,29.78,29.53,0,0,0,0.00
2013-12-10,27,12,4,7,-1,-12,86,59,26,29.93,29.43,0,0,0,0.00
2013-12-11,13,13,13,-4,-4,-4,46,46,46,30.06,29.93,0,0,0,0.00
2013-12-12,43,24,16,11,7,2,73,53,20,29.94,29.80,0,0,0,0.00
2013-12-13,25,16,12,11,7,5,81,69,51,29.93,29.78,14,5,14,0.00
2013-12-14,36,16,11,17,8,4,83,73,38,29.93,29.76,12,4,12,0.00
2013-12-15,34,11,1,5,-12,-20,66,38,11,29.81,29.75,10,3,10,0.00
2013-12-16,17,7,2,10,-5,-14,79,59,35,29.78,29.58,19,6,19,0.00
2013-12-17,18,14,11,8,6,5,77,72,64,29.78,29.74,8,3,12,0.00
2013-12-18,23,13,11,15,8,5,90,80,70,29.74,29.42,21,5,21,0.00
2013-12-20,24,20,16,16,14,12,88,79,66,29.68,29.52,7,3,7,0.00
2013-12-21,27,21,17,17,15,13,82,76,63,29.65,29.53,8,4,8,0.00
2013-12-22,27,18,4,18,12,-2,84,76,58,29.90,29.61,11,5,11,0.00
2013-12-23,25,13,4,-2,-9,-13,75,39,19,30.06,29.91,9,7,9,0.00
2013-12-25,15,13,11,11,8,5,88,81,74,29.80,29.74,6,4,6,0.00
2013-12-26,34,23,13,24,18,9,90,82,65,29.81,29.72,8,3,8,0.00
2013-12-27,44,32,17,32,27,16,100,84,57,29.82,29.57,13,7,13,0.01
2013-12-28,53,35,23,33,28,20,100,81,41,29.65,29.31,16,6,16,0.00
2013-12-29,26,0,-2,18,-18,-20,89,42,21,29.96,29.67,11,6,11,0.00
2013-12-30,0,-2,-2,-20,-20,-20,41,35,41,29.96,29.82,5,5,5,0.00